Tracking 20623 objects as of 3-Apr-2020
HD Live streaming from Space Station
objects crossing your sky now

EKRAN 4

Track EKRAN 4 now!
EKRAN 4 is classified as:


NORAD ID: 11561
Int'l Code: 1979-087A
Perigee: 35,748.8 km
Apogee: 35,856.5 km
Inclination: 10.9 °
Period: 1,436.6 minutes
Semi major axis: 42173 km
RCS: 0.1995 m2 (medium)
Launch date: October 3, 1979
Source: Commonwealth of Independent States (former USSR) (CIS)
Launch site: TYURATAM MISSILE AND SPACE COMPLEX (TTMTR)
aabbcc
Your satellite tracking list
Your tracking list is empty




NASA's NSSDC Master Catalog

Two Line Element Set (TLE):
1 11561U 79087A   20093.78155545 -.00000255 +00000-0 +00000-0 0  9992
2 11561 010.9455 310.6902 0012776 092.0481 162.1546 01.00240010024647
Source of the keplerian elements: AFSPC